Regional Weather Roundup
Issued by NWS

Home | Current Version | Previous Version | Graphics & Text | Print | Product List | Glossary On
Versions: 1 2 3 4 5 6 7 8 9 10 11 12 13 14 15 16 17 18 19 20 21 22 23 24 25 26 27 28 29 30 31 32 33 34 35 36 37 38 39 40 41 42 43 44 45 46 47 48 49 50
000
ASUS43 KLSX 231459
RWRMO

WEATHER SUMMARY FOR MISSOURI
NATIONAL WEATHER SERVICE SPRINGFIELD MO
1000 AM CDT WED APR 23 2014

NOTE: "FAIR" INDICATES FEW OR NO CLOUDS BELOW 12,000 FEET WITH NO
       SIGNIFICANT WEATHER AND/OR OBSTRUCTIONS TO VISIBILITY.
       CURRENT SKY AND/OR WEATHER CONDITIONS ARE NOT AVAILABLE FOR
       CHILLICOTHE AND FARMINGTON.

MOZ001>031-035>038-043-044-053-054-231600-
...NORTHERN AND WESTERN MISSOURI...

CITY           SKY/WX    TMP DP  RH WIND       PRES   REMARKS
KANSAS CTY INT CLOUDY    55  38  52 SE13      29.99F
KANSAS C DTWN  CLOUDY    58  35  42 SE12G18   29.99F
LEE`S SUMMIT   CLOUDY    56  35  45 SE13      30.00F
ST JOSEPH      LGT RAIN  51  41  68 SE17      29.98F
KIRKSVILLE     CLOUDY    48  36  63 E10       30.09F

$$
MOZ066>068-077>081-088>096-101>105-231600-
...SOUTHWEST MISSOURI...

CITY           SKY/WX    TMP DP  RH WIND       PRES   REMARKS
SPRINGFIELD    PTSUNNY   63  37  38 SE23G29   30.01F
JOPLIN         CLOUDY    63  40  42 SE14G22   29.97F

$$
MOZ032>034-039>042-045>050-055>058-069>072-231600-
...CENTRAL MISSOURI...

CITY           SKY/WX    TMP DP  RH WIND       PRES   REMARKS
COLUMBIA       PTSUNNY   57  36  45 SE10      30.07F
JEFFERSON CITY PTSUNNY   59  34  39 SE13      30.07F
ROLLA          MOSUNNY   59  34  39 SE14      30.06F
SEDALIA        CLOUDY    56  36  47 E14       30.03F
OSAGE BEACH    MOSUNNY   63  30  29 SE9       30.07F

$$
MOZ051-052-059>065-231600-
...EAST CENTRAL MISSOURI...

CITY           SKY/WX    TMP DP  RH WIND       PRES   REMARKS
ST LOUIS INTL  MOSUNNY   55  35  47 E9        30.13F
SPIRIT OF STL  SUNNY     55  38  52 E10G17    30.12F
ST CHARLES     SUNNY     55  34  45 E14       30.12F

$$
MOZ072>076-082>087-097>100-106>115-231600-
...SOUTH CENTRAL AND SOUTHEAST MISSOURI...

CITY           SKY/WX    TMP DP  RH WIND       PRES   REMARKS
CAPE GIRARDEAU SUNNY     61  40  45 E10       30.10S
FARMINGTON     SUNNY     57  37  47 E8        30.12S
POPLAR BLUFF   SUNNY     63  38  39 E7        30.08R
WEST PLAINS    SUNNY     61  32  33 E10       30.08R

$$



USA.gov is the U.S. government's official web portal to all federal, state and local government web resources and services.